Simultaneous Nadir Overpasses (SNOs) Predictions

Prediction of SNOs between GOES-17 and NOAA-19 Satellite Orbit:

Table of predicted SNOs for the next 14.0 days since TLE Epoch: 4/26/2019
Index Date Time (GOES-17) GOES-17 Lat,Lon NOAA-19 Lat,Lon Distance(km) Time Diff (sec)
1 04/27/2019 14:02:27 -0.01,-137.23 0.16,-138.07 95.66 80
2 04/28/2019 13:48:09 -0.01,-137.23 -0.47,-135.23 228.07 80
3 05/01/2019 02:09:26 0.01,-137.16 -0.68,-140.27 353.88 80
4 05/02/2019 01:57:48 0.01,-137.16 -0.07,-137.42 30.64 80
5 05/03/2019 01:48:52 0.01,-137.15 0.60,-134.59 292.53 80
6 05/05/2019 14:09:55 -0.00,-137.19 0.56,-139.57 272.01 80
7 05/06/2019 13:55:37 0.00,-137.18 -0.07,-136.73 50.53 80
8 05/07/2019 13:44:01 0.00,-137.16 -0.77,-133.90 372.59 80
9 05/10/2019 02:05:19 0.00,-137.05 -0.42,-138.94 215.13 80




NCC Satellite Simultaneous Nadir Overpasses (SNOs) Prediction Service
